Regional Weather Roundup
Issued by NWS

Home | Current Version | Previous Version | Text Only | Print | Product List | Glossary Off
Versions: 1 2 3 4 5 6 7 8 9 10 11 12 13 14 15 16 17 18 19 20 21 22 23 24 25 26 27 28 29 30 31 32 33 34 35 36 37 38 39 40 41 42 43 44 45 46 47 48 49 50

000
ASUS45 KTFX 250310
RWRMT
MONTANA REGIONAL WEATHER ROUNDUP
NATIONAL WEATHER SERVICE GREAT FALLS MT
900 PM MDT TUE MAY 24 2016

NOTE: "FAIR" INDICATES FEW OR NO CLOUDS BELOW 12000 FEET WITH NO
SIGNIFICANT WEATHER AND/OR OBSTRUCTIONS TO VISIBILITY.

MTZ001>007-043-250400-
WEST OF THE DIVIDE

CITY           SKY/WX    TMP DP  RH WIND       PRES   REMARKS
KALISPELL      CLEAR     53  44  71 S5        29.89S
MISSOULA       PTCLDY    54  42  64 N5        29.92S
BUTTE          CLOUDY    48  36  63 NW7       29.94R
MULLAN PASS    CLEAR     40  39  97 NW3       29.96S
ANACONDA         N/A     46  43  87 CALM      29.93S
DEER LODGE       N/A     48  41  76 CALM      29.94S
EUREKA           N/A     61  41  48 S3        29.86S
HAMILTON         N/A     54  43  66 NW6       29.91S
LIBBY            N/A     57  45  62 CALM      29.88R
PLAINS           N/A     57  46  66 CALM      29.93
$$

MTZ008-052>055-250400-
SOUTHWEST MONTANA

CITY           SKY/WX    TMP DP  RH WIND       PRES   REMARKS
BOZEMAN        CLOUDY    54  41  61 W6        29.89R
DILLON         CLOUDY    48  38  68 NE16      29.90R
ENNIS          CLEAR     46  39  76 N7        29.95R
TWIN BRIDGES     N/A     52  37  56 N13       29.90
$$

MTZ009-010-012-014-046-048-049-054-250400-
EAST SLOPES AND CENTRAL MONTANA

CITY           SKY/WX    TMP DP  RH WIND       PRES   REMARKS
CUT BANK       PTCLDY    53  41  63 SE3       29.87S
GREAT FALLS    CLOUDY    51  43  74 CALM      29.88S
MALMSTROM AFB  CLOUDY    53  42  67 SE3       29.88S
HELENA         CLOUDY    53  43  68 S3        29.89R
CHOTEAU          N/A     54  41  62 CALM      29.89S
CONRAD           N/A     53  47  80 SW2       29.92R
$$

MTZ011-013-016-021-045-047-050-051-250400-
NORTH CENTRAL MONTANA

CITY           SKY/WX    TMP DP  RH WIND       PRES   REMARKS
HAVRE          CLEAR     57  40  52 CALM      29.86S
LEWISTOWN      CLEAR     51  41  68 N3        29.90F
N BAR RANCH      N/A     46  43  87 CALM      29.93F
CHINOOK          N/A     55  46  71 CALM      29.87R
$$

MTZ017>020-022>027-061-062-250400-
NORTHEAST MONTANA

CITY           SKY/WX    TMP DP  RH WIND       PRES   REMARKS
GLASGOW        CLEAR     55  43  63 N6        29.86S
JORDAN           N/A     53  42  66 NW7       29.86S
SIDNEY         PTCLDY    59  41  51 NW9       29.86S
WOLF POINT     CLEAR     56  42  59 N6        29.87R
PLENTYWOOD       N/A     57  39  51 NW5       29.88R
POPLAR           N/A     59  39  47 NW5       29.87R
SCOBEY           N/A     54  35  48 W2        29.88
$$

MTZ028>42-056>058-250400-
SOUTHCENTRAL AND SOUTHEAST MONTANA

CITY           SKY/WX    TMP DP  RH WIND       PRES   REMARKS
BAKER          CLOUDY    60  47  61 E12       29.83F
BILLINGS       CLOUDY    56  42  59 E3        29.88R
LIVINGSTON     CLEAR     53  35  50 N3        29.87S
MILES CITY     CLOUDY    65  39  38 N15       29.83R
EKALAKA          N/A     58  46  64 SE5       29.83
FORSYTH          N/A     54  52  94 W6        29.88R
$$

REGIONAL REPORTS...DAKOTAS

CITY           SKY/WX    TMP DP  RH WIND       PRES   REMARKS
WILLISTON      PTCLDY    57  38  48 NW6       29.87R
MINOT          PTCLDY    65  45  48 N7        29.86R
DICKINSON      MOCLDY    55  49  80 E6        29.85R
BEACH            N/A     57  41  54 NE8       29.89R
CROSBY           N/A     55  37  50 W6        29.90R
WATFORD CITY     N/A     59  41  51 N5        29.87R
BISMARCK       MOCLDY    67  48  50 E8        29.83S
GRAND FORKS    CLEAR     68  53  58 E7        29.87R
FARGO          CLEAR     68  39  34 NE8       29.86R
BUFFALO SD       N/A     63  42  46 S13       29.76S
RAPID CITY     CLOUDY    57  48  72 S8        29.84R
$$

REGIONAL REPORTS...WYOMING/IDAHO/WASHINGTON

CITY           SKY/WX    TMP DP  RH WIND       PRES   REMARKS
GILLETTE       LGT RAIN  52  49  89 NW7       29.86R
SHERIDAN       HVY RAIN  50  46  86 SW15G28   29.92R FOG
BUFFALO WY     LGT RAIN  50  43  77 NW15      29.91F
CODY           CLOUDY    48  41  76 NW5       29.90S
YELLOWSTONE LA   N/A     37  35  92 CALM      30.00R
IDAHO FALLS    CLOUDY    51  40  65 N9        29.90R
SALMON         CLOUDY    54  37  54 SW7       29.87R
BOISE          CLOUDY    67  33  28 NW15      29.83R
SPOKANE        PTCLDY    60  45  57 S6        29.90S
$$

REGIONAL REPORTS...ALBERTA

CITY           SKY/WX    TMP DP  RH WIND       PRES   REMARKS
EDMONTON       PTCLDY    59  43  55 SE8       29.81S
CALGARY        PTCLDY    57  37  47 SE12      29.84S
LETHBRIDGE     PTCLDY    54  45  71 E6        29.85S
MEDICINE HAT   PTCLDY    52  46  82 E2        29.86S
WATERTON GATE    N/A     52  36  54 SW10G17     N/A
CARDSTON         N/A     57  45  62 SE2         N/A
MILK RIVER       N/A     52  43  71 E5          N/A
$$

REGIONAL REPORTS...SASKATCHEWAN

CITY           SKY/WX    TMP DP  RH WIND       PRES   REMARKS
SWIFT CURRENT  PTCLDY    50  46  87 W8        29.84S
REGINA         PTCLDY    52  41  66 W6        29.86S
SASKATOON      MOCLDY    52  50  93 NE13      29.87S
CYPRESS HILLS    N/A     43  39  87 N3          N/A
VAL MARIE        N/A     48  46  93 SW5         N/A
ROCKGLEN         N/A     46  43  87 SW7         N/A
$$



USA.gov is the U.S. government's official web portal to all federal, state and local government web resources and services.